Location: Baix
(44.7118°N, 4.7648°E)
Time: 18:44:13
(UTC+00:00)

Vanguard 3 - Pass Details

Date: 26 November 2020
Orbit: 508 x 3262 km, 33.4° (Epoch: 16 January)

Event Time Altitude Azimuth Distance (km) Brightness Sun altitude
Exits shadow 02:07:46 13° 152° (SSE) 4,068 10.7 -49.6°
Drops below altitude 10° 02:09:08 10° 148° (SSE) 4,442 10.9 -49.4°
Sets 02:14:37 0° 137° (SE) 5,975 11.8 -48.4°
